Orbital Elements at Epoch 2459000.5 (2020-May-31.0) TDB
Reference: JPL 12 (heliocentric ecliptic J2000)
Element | Value | Uncertainty (1-sigma) | Units |
e | .1401581312079389 | 4.3642e-08 | |
a | 3.021794698553165 | 2.0773e-08 | au |
q | 2.598265600709897 | 1.2695e-07 | au |
i | .7428503759911049 | 4.2656e-06 | deg |
node | 355.75291988 | 0.00032886 | deg |
peri | 232.1198287942959 | 0.00032927 | deg |
M | 70.20125000863584 | 1.5261e-05 | deg |
tp | 2458626.356500720903 (2019-May-22.85650072) | 8.0762e-05 | TDB |
period | 1918.650447447954 5.25 | 1.9784e-05 5.417e-08 | d yr |
n | .1876318849422756 | 1.9348e-09 | deg/d |
Q | 3.445323796396433 | 2.3685e-08 | au |
|
| | Orbit Determination Parameters
Additional Information
|